Weather History for KLNR - July, 2013

Change the Weather History Date:

Friday, July 19, 2013

  Actual Average Record
Temperature  
Mean Temperature 82 °F -  
Max Temperature 93 °F 80 °F 96 °F (2011)
Min Temperature 66 °F 59 °F 50 °F (2003)
Cooling Degree Days 16    
Growing Degree Days 32 (Base 50)    
Moisture  
Dew Point 68 °F    
Average Humidity 63    
Maximum Humidity 87    
Minimum Humidity 42    
Precipitation  
Precipitation 0.00 in - - ()
Sea Level Pressure  
Sea Level Pressure 29.79 in    
Wind  
Wind Speed 6 mph (West)    
Max Wind Speed 15 mph    
Max Gust Speed 21 mph    
Visibility 10 miles    
Events Thunderstorm    
Averages and records for this station are not official NWS values.
T = Trace of Precipitation, MM = Missing Value Source: NWS Daily Summary

Daily Weather History Graph

Daily Weather History Graph

Search for Another Location

Airport or City:

Trip Planner

Search our weather history database for the weather conditions in past years. The results will help you decide how hot, cold, wet, or windy it might be!

Date:

Astronomy

Jul. 19, 2013 Rise Set
Actual Time 5:38 AM CDT 8:35 PM CDT
Civil Twilight 5:04 AM CDT 9:09 PM CDT
Nautical Twilight 4:21 AM CDT 9:51 PM CDT
Astronomical Twilight 3:30 AM CDT 10:42 PM CDT
Moon 5:37 PM CDT (7/19) 2:20 AM CDT (7/19)
Length of Visible Light 16h 04m
Length of Day
14h 56m
Waxing Gibbous, 87% of the Moon is Illuminated
Jul 19
Waxing Gibbous
Jul 22
Full
Jul 29
Last Quarter
Aug 6
New
Aug 14
First Quarter

Hourly Weather History & Observations

Time (CDT) Temp. Heat Index Dew Point Humidity Pressure Visibility Wind Dir Wind Speed Gust Speed Precip Events Conditions
12:56 AM 77.0 °F - 70.0 °F 79% 29.85 in 10.0 mi Calm Calm - N/A   Clear
1:56 AM 78.1 °F - 69.1 °F 74% 29.83 in 10.0 mi SW 6.9 mph - N/A   Clear
2:56 AM 78.1 °F - 69.1 °F 74% 29.82 in 10.0 mi WSW 4.6 mph - N/A   Clear
3:56 AM 75.9 °F - 68.0 °F 76% 29.79 in 10.0 mi SW 4.6 mph - N/A   Clear
4:56 AM 77.0 °F - 68.0 °F 74% 29.78 in 10.0 mi SW 5.8 mph - N/A   Clear
5:56 AM 78.1 °F - 66.9 °F 68% 29.78 in 10.0 mi SW 4.6 mph - N/A   Scattered Clouds
6:47 AM 78.8 °F - 66.2 °F 65% 29.84 in 10.0 mi West 6.9 mph - N/A Thunderstorm Overcast
6:56 AM 79.0 °F - 66.9 °F 66% 29.81 in 10.0 mi WNW 5.8 mph - N/A   Overcast
7:56 AM 81.0 °F 84.4 °F 70.0 °F 69% 29.81 in 10.0 mi WSW 5.8 mph - 0.00 in   Scattered Clouds
8:56 AM 82.0 °F 85.5 °F 69.1 °F 65% 29.80 in 10.0 mi SW 10.4 mph - N/A   Clear
9:56 AM 82.9 °F 87.0 °F 70.0 °F 65% 29.80 in 10.0 mi SW 9.2 mph 18.4 mph N/A   Clear
10:56 AM 87.1 °F 92.8 °F 71.1 °F 59% 29.78 in 10.0 mi SW 11.5 mph 19.6 mph N/A   Clear
11:56 AM 88.0 °F 94.7 °F 72.0 °F 59% 29.78 in 10.0 mi West 10.4 mph 16.1 mph N/A   Clear
12:56 PM 90.0 °F 96.9 °F 72.0 °F 55% 29.76 in 10.0 mi West 11.5 mph 19.6 mph N/A   Clear
1:56 PM 90.0 °F 96.9 °F 72.0 °F 55% 29.76 in 10.0 mi WSW 10.4 mph 18.4 mph N/A   Partly Cloudy
2:56 PM 91.9 °F 95.9 °F 68.0 °F 45% 29.75 in 10.0 mi West 12.7 mph 18.4 mph N/A   Partly Cloudy
3:56 PM 93.0 °F 97.9 °F 69.1 °F 45% 29.73 in 10.0 mi West 9.2 mph 19.6 mph N/A   Clear
4:56 PM 93.0 °F 97.9 °F 69.1 °F 45% 29.73 in 10.0 mi WNW 12.7 mph 19.6 mph N/A   Partly Cloudy
5:56 PM 90.0 °F 91.3 °F 64.0 °F 42% 29.74 in 10.0 mi WNW 15.0 mph 20.7 mph N/A   Clear
6:56 PM 88.0 °F 88.4 °F 62.1 °F 42% 29.75 in 10.0 mi WNW 10.4 mph - N/A   Clear
7:56 PM 82.9 °F 84.4 °F 64.0 °F 53% 29.76 in 10.0 mi WNW 5.8 mph - N/A   Clear
8:56 PM 79.0 °F - 64.0 °F 60% 29.78 in 10.0 mi NW 4.6 mph - N/A   Clear
9:56 PM 75.0 °F - 64.0 °F 69% 29.81 in 10.0 mi West 5.8 mph - N/A   Clear
10:56 PM 70.0 °F - 64.9 °F 84% 29.83 in 10.0 mi Calm Calm - N/A   Clear
11:56 PM 66.9 °F - 63.0 °F 87% 29.84 in 10.0 mi Calm Calm - N/A   Clear